Location: *
(58.4167°N, 22.5000°E)
Time: 18:40:41
(UTC+00:00)

Meteor 2-15 - Pass Details

Date: 22 September 2019
Orbit: 936 x 956 km, 82.5° (Epoch: 20 October)

Event Time Altitude Azimuth Distance (km) Brightness Sun altitude
Rises 17:06:39 0° 185° (S) 3,625 7.4 -5.5°
Reaches altitude 10° 17:09:08 10° 184° (S) 2,684 6.8 -5.8°
Maximum altitude 17:15:16 78° 99° (E) 985 4.5 -6.6°
Drops below altitude 10° 17:21:27 10° 15° (NNE) 2,699 6.8 -7.4°
Sets 17:23:57 0° 14° (NNE) 3,646 7.5 -7.7°
